FW1981 Weather Reports


Display with metric or nautical units.
time (UTC)temp
F
wind
direction
speed
MPH
gust
MPH
rain 1hr
in
rain 24hr
in
rain mn
in
humidity
%
barometer
mb
20260510172520 51 146 7.0 21.0 0.00 0.03 0.03 81 1022.7
20260510172020 50 108 9.0 21.0 0.00 0.03 0.03 82 1022.9
20260510171520 50 146 7.0 18.0 0.00 0.03 0.03 83 1022.8
20260510171031 49 171 10.0 18.0 0.00 0.03 0.03 83 1023.0
20260510170519 49 121 8.0 15.0 0.00 0.03 0.03 83 1023.0
20260510170030 50 120 9.0 15.0 0.00 0.03 0.03 82 1023.1
20260510165520 51 103 8.0 15.0 0.00 0.03 0.03 80 1022.9
20260510165021 51 130 7.0 14.0 0.00 0.03 0.03 85 1023.1
20260510164520 50 136 7.0 14.0 0.00 0.03 0.03 84 1023.1
20260510164030 49 136 8.0 14.0 0.00 0.03 0.03 84 1023.1
20260510163520 49 115 6.0 10.0 0.00 0.03 0.03 85 1023.1
20260510163029 49 156 6.0 12.0 0.00 0.03 0.03 85 1023.1
20260510162529 49 109 5.0 12.0 0.00 0.03 0.03 85 1023.2
20260510162027 48 114 3.0 11.0 0.00 0.03 0.03 86 1023.1
20260510161527 49 121 5.0 12.0 0.00 0.03 0.03 84 1023.3
20260510161027 49 141 5.0 12.0 0.00 0.03 0.03 84 1023.3
20260510160537 49 90 7.0 12.0 0.00 0.03 0.03 85 1023.3
20260510160026 49 62 5.0 12.0 0.00 0.03 0.03 86 1023.4
20260510155526 48 147 5.0 12.0 0.00 0.03 0.03 85 1023.3
20260510155037 48 85 3.0 8.0 0.00 0.03 0.03 86 1023.1
20260510154525 48 113 3.0 8.0 0.00 0.03 0.03 87 1023.5
20260510154023 48 63 3.0 9.0 0.00 0.03 0.03 86 1023.5
20260510153538 48 133 4.0 11.0 0.00 0.03 0.03 87 1023.7
20260510153020 48 113 4.0 11.0 0.00 0.03 0.03 88 1023.5
20260510152520 47 140 7.0 13.0 0.00 0.03 0.03 87 1023.8
20260510152020 47 107 6.0 14.0 0.00 0.03 0.03 87 1023.8
20260510151531 47 136 8.0 13.0 0.00 0.03 0.03 87 1023.8
20260510151024 47 122 7.0 13.0 0.00 0.03 0.03 87 1023.8
20260510150520 47 104 8.0 15.0 0.00 0.03 0.03 87 1023.8
20260510150020 48 103 8.0 12.0 0.00 0.03 0.03 89 1023.9
20260510145519 47 129 7.0 13.0 0.00 0.03 0.03 90 1023.9
20260510145020 47 124 8.0 14.0 0.00 0.03 0.03 90 1023.9
20260510144519 46 114 8.0 14.0 0.00 0.03 0.03 90 1024.1
20260510144025 46 138 6.0 12.0 0.00 0.03 0.03 91 1024.1
20260510143531 46 104 6.0 12.0 0.00 0.03 0.03 91 1024.1
20260510143020 46 139 7.0 12.0 0.00 0.03 0.03 91 1024.2
20260510142520 46 80 6.0 11.0 0.00 0.03 0.03 92 1024.1
20260510142020 46 122 6.0 12.0 0.00 0.03 0.03 92 1024.1
20260510141520 46 115 7.0 12.0 0.00 0.03 0.03 92 1024.2
20260510141020 45 101 8.0 12.0 0.00 0.03 0.03 92 1024.1
20260510140520 45 108 7.0 13.0 0.00 0.03 0.03 92 1024.3
20260510140021 45 115 8.0 13.0 0.00 0.03 0.03 91 1024.3
20260510135516 45 108 8.0 13.0 0.01 0.03 0.03 90 1024.3
20260510135009 46 126 7.0 12.0 0.01 0.03 0.03 91 1024.3
20260510134527 46 93 7.0 12.0 0.01 0.03 0.03 91 1024.2
20260510134008 45 158 8.0 15.0 0.01 0.03 0.03 90 1024.2
20260510133517 46 110 8.0 15.0 0.01 0.03 0.03 90 1024.1
20260510133019 46 140 6.0 11.0 0.01 0.03 0.03 89 1024.2
20260510132521 47 210 6.0 11.0 0.01 0.03 0.03 88 1024.1
20260510132009 48 103 8.0 16.0 0.01 0.03 0.03 88 1024.2
20260510131516 49 120 6.0 16.0 0.01 0.03 0.03 89 1024.3
20260510131009 49 136 8.0 17.0 0.02 0.03 0.03 89 1024.4
20260510130516 49 101 6.0 19.0 0.02 0.03 0.03 90 1024.2
20260510130009 49 134 8.0 19.0 0.02 0.03 0.03 90 1024.2
20260510125532 49 160 6.0 14.0 0.01 0.02 0.02 90 1024.4
20260510125009 49 166 6.0 15.0 0.01 0.02 0.02 89 1024.3
20260510124517 49 200 8.0 15.0 0.01 0.02 0.02 90 1024.2
20260510124009 49 131 7.0 13.0 0.01 0.02 0.02 90 1024.4
20260510123517 48 146 7.0 14.0 0.01 0.02 0.02 91 1024.3
20260510123010 48 181 7.0 15.0 0.01 0.02 0.02 91 1024.4
20260510122516 48 219 8.0 15.0 0.01 0.02 0.02 90 1024.4
20260510122009 48 139 7.0 15.0 0.01 0.02 0.02 89 1024.4
20260510121516 48 219 5.0 16.0 0.00 0.01 0.01 88 1024.4
20260510121010 49 165 7.0 16.0 0.00 0.01 0.01 87 1024.5
20260510120516 49 200 7.0 17.0 0.00 0.01 0.01 86 1024.4
20260510120009 50 133 10.0 19.0 0.00 0.01 0.01 86 1024.3
20260510115516 50 152 10.0 19.0 0.00 0.01 0.01 86 1024.3
20260510115010 50 167 6.0 16.0 0.00 0.01 0.01 86 1024.2
20260510114517 49 238 8.0 16.0 0.00 0.01 0.01 86 1023.9
20260510114009 49 143 8.0 18.0 0.00 0.01 0.01 86 1024.0
20260510113517 49 168 8.0 17.0 0.00 0.01 0.01 87 1023.9
20260510113009 48 214 9.0 15.0 0.00 0.01 0.01 86 1023.9
20260510112521 48 142 7.0 15.0 0.00 0.01 0.01 86 1023.9
20260510112009 48 158 7.0 16.0 0.00 0.01 0.01 86 1023.9
20260510111516 48 166 7.0 15.0 0.00 0.01 0.01 86 1023.9
20260510111010 48 159 6.0 17.0 0.00 0.01 0.01 86 1024.0
20260510110516 48 134 8.0 17.0 0.00 0.01 0.01 86 1023.7
20260510110011 48 205 8.0 17.0 0.00 0.01 0.01 86 1023.7
20260510105517 48 176 6.0 18.0 0.00 0.01 0.01 86 1023.9
20260510105010 48 136 7.0 18.0 0.00 0.01 0.01 86 1023.8
20260510104517 48 158 7.0 13.0 0.00 0.01 0.01 87 1023.8
20260510104009 47 124 6.0 14.0 0.00 0.01 0.01 87 1023.8
20260510103516 47 178 7.0 14.0 0.00 0.01 0.01 87 1023.8
20260510103010 47 208 6.0 16.0 0.00 0.01 0.01 87 1023.8
20260510102516 47 157 8.0 16.0 0.00 0.01 0.01 87 1023.6
20260510102009 47 167 8.0 18.0 0.00 0.01 0.01 88 1023.5
20260510101517 46 158 3.0 10.0 0.00 0.01 0.01 88 1023.5
20260510101009 46 207 5.0 12.0 0.00 0.01 0.01 87 1023.5
20260510100517 46 211 5.0 11.0 0.00 0.01 0.01 87 1023.5
20260510100009 46 235 4.0 10.0 0.00 0.01 0.01 87 1023.5
20260510095516 46 184 5.0 12.0 0.00 0.01 0.01 87 1023.5
20260510095009 46 108 4.0 12.0 0.00 0.01 0.01 86 1023.4
20260510094517 46 198 5.0 12.0 0.00 0.01 0.01 86 1023.6
20260510094009 46 150 4.0 12.0 0.00 0.01 0.01 86 1023.4
20260510093517 46 181 3.0 12.0 0.00 0.01 0.01 86 1023.4
20260510093020 46 170 6.0 12.0 0.00 0.01 0.01 86 1023.3
20260510092521 46 293 4.0 11.0 0.00 0.01 0.01 86 1023.3
20260510092009 46 245 4.0 11.0 0.00 0.01 0.01 86 1023.3
20260510091522 46 258 4.0 11.0 0.00 0.01 0.01 86 1023.3
20260510091009 46 147 4.0 10.0 0.00 0.01 0.01 86 1023.4
20260510090516 46 178 4.0 10.0 0.00 0.01 0.01 87 1023.2
20260510090010 46 179 4.0 11.0 0.00 0.01 0.01 87 1023.2
20260510085516 45 193 3.0 11.0 0.00 0.01 0.01 87 1023.2
20260510085020 45 207 4.0 8.0 0.00 0.01 0.01 88 1023.2
20260510084527 45 184 3.0 8.0 0.00 0.01 0.01 88 1023.1
20260510084010 45 181 3.0 9.0 0.00 0.01 0.01 88 1023.2
20260510083516 45 158 5.0 9.0 0.00 0.01 0.01 89 1023.1
20260510083009 45 248 4.0 8.0 0.00 0.01 0.01 89 1023.1
20260510082528 45 196 3.0 8.0 0.00 0.01 0.01 89 1023.2
20260510082010 45 203 3.0 10.0 0.00 0.01 0.01 89 1023.1
20260510081518 45 136 5.0 10.0 0.00 0.01 0.01 89 1023.1
20260510081009 45 141 4.0 12.0 0.00 0.01 0.01 89 1023.1
20260510080529 45 197 3.0 12.0 0.00 0.01 0.01 89 1023.0
20260510080030 45 159 5.0 12.0 0.00 0.01 0.01 90 1022.9
20260510075509 45 223 4.0 12.0 0.00 0.01 0.01 90 1023.0
20260510075017 45 179 4.0 10.0 0.00 0.01 0.01 90 1022.8
20260510074509 45 191 4.0 8.0 0.00 0.01 0.01 90 1022.8
20260510074028 44 151 3.0 9.0 0.00 0.01 0.01 90 1023.0
20260510073509 44 164 3.0 7.0 0.00 0.01 0.01 90 1023.0
20260510073028 44 204 3.0 7.0 0.00 0.01 0.01 90 1023.0
20260510072514 44 163 2.0 7.0 0.00 0.01 0.01 90 1023.0
20260510072017 44 186 3.0 7.0 0.00 0.01 0.01 90 1023.1
20260510071521 44 149 2.0 6.0 0.00 0.01 0.01 91 1023.1
20260510071017 44 146 2.0 7.0 0.00 0.01 0.01 91 1023.1
20260510070509 44 181 3.0 7.0 0.00 0.01 0.01 91 1023.1
20260510070017 44 227 3.0 9.0 0.00 0.01 0.01 91 1023.1
20260510065509 44 144 4.0 9.0 0.00 0.01 0.01 91 1023.0
20260510065017 44 160 2.0 9.0 0.00 0.01 0.01 91 1023.0
20260510064509 45 210 5.0 9.0 0.00 0.01 0.01 91 1022.8
20260510064018 44 160 5.0 8.0 0.00 0.01 0.01 92 1022.8
20260510063509 44 139 3.0 9.0 0.00 0.01 0.01 92 1022.9
20260510063017 44 183 4.0 9.0 0.00 0.01 0.01 92 1022.9
20260510062520 44 200 3.0 9.0 0.00 0.01 0.01 92 1022.8
20260510062017 44 145 3.0 8.0 0.00 0.01 0.01 92 1022.6
20260510061510 44 235 3.0 8.0 0.00 0.01 0.01 92 1022.7
20260510061018 44 116 4.0 8.0 0.00 0.01 0.01 92 1022.8
20260510060509 44 128 4.0 8.0 0.00 0.01 0.01 92 1022.9
20260510060016 44 165 3.0 7.0 0.00 0.01 0.01 92 1022.9
20260510055521 44 155 4.0 8.0 0.00 0.01 0.01 92 1023.0
20260510055017 44 216 2.0 8.0 0.00 0.01 0.01 92 1023.1
20260510054520 44 202 3.0 8.0 0.00 0.01 0.01 92 1023.1
20260510054017 44 207 2.0 8.0 0.00 0.01 0.01 92 1023.1
20260510053510 44 225 3.0 8.0 0.01 0.01 0.01 92 1023.1
20260510053018 44 149 3.0 8.0 0.01 0.01 0.01 92 1023.0
20260510052509 44 210 2.0 8.0 0.01 0.01 0.01 92 1023.0
20260510052017 44 115 3.0 8.0 0.01 0.01 0.01 92 1023.1
20260510051522 44 181 3.0 6.0 0.01 0.01 0.01 92 1023.1
20260510051017 44 190 2.0 6.0 0.01 0.01 0.01 92 1023.2
20260510050510 44 216 2.0 6.0 0.01 0.01 0.01 92 1023.1
20260510050017 44 200 2.0 6.0 0.01 0.01 0.01 92 1023.0
20260510045526 44 178 3.0 6.0 0.01 0.01 0.01 92 1022.9
20260510045022 44 166 2.0 6.0 0.01 0.01 0.01 92 1023.0
20260510044509 44 214 2.0 6.0 0.01 0.01 0.01 92 1023.0
20260510044017 44 158 2.0 6.0 0.01 0.01 0.01 91 1023.2
20260510043509 44 203 2.0 5.0 0.00 0.00 0.00 91 1023.2
20260510043022 44 171 1.0 4.0 0.00 0.00 0.00 91 1023.2
20260510042510 44 154 1.0 4.0 0.00 0.00 0.00 92 1023.2
20260510042017 44 271 2.0 6.0 0.00 0.00 0.00 91 1023.2
20260510041510 44 201 2.0 6.0 0.00 0.00 0.00 91 1023.2
20260510041022 44 200 1.0 3.0 0.00 0.00 0.00 91 1023.2
20260510040510 44 233 1.0 3.0 0.00 0.00 0.00 91 1023.2
20260510040017 44 139 0.0 2.0 0.00 0.00 0.00 91 1023.3
20260510035510 44 164 1.0 2.0 0.00 0.00 0.00 91 1023.3
20260510035018 44 238 0.0 2.0 0.00 0.00 0.00 91 1023.3
20260510034520 44 260 0.0 3.0 0.00 0.00 0.00 91 1023.4
20260510034017 44 155 0.0 3.0 0.00 0.00 0.00 90 1023.4
20260510033510 44 242 1.0 4.0 0.00 0.00 0.00 90 1023.4
20260510033017 44 239 1.0 4.0 0.00 0.00 0.00 90 1023.3
20260510032509 44 229 1.0 5.0 0.00 0.00 0.00 90 1023.3
20260510032028 44 237 1.0 5.0 0.00 0.00 0.00 90 1023.3
20260510031510 44 238 1.0 5.0 0.00 0.00 0.00 90 1023.3
20260510031022 44 260 1.0 5.0 0.00 0.00 0.00 89 1023.1
20260510030521 44 219 2.0 5.0 0.00 0.00 0.00 89 1023.2
20260510030017 44 241 1.0 4.0 0.00 0.00 0.00 89 1023.1
20260510025510 44 236 1.0 4.0 0.00 0.00 0.00 89 1023.0
20260510025028 44 232 1.0 3.0 0.00 0.00 0.00 89 1023.0
20260510024510 44 226 1.0 4.0 0.00 0.00 0.00 89 1023.0
20260510024028 44 250 1.0 7.0 0.00 0.00 0.00 89 1023.0
20260510023510 44 225 2.0 7.0 0.00 0.00 0.00 88 1023.1
20260510023028 43 233 2.0 5.0 0.00 0.00 0.00 88 1023.2
20260510022510 44 264 1.0 7.0 0.00 0.00 0.00 88 1023.2
20260510022028 44 255 2.0 8.0 0.00 0.00 0.00 88 1023.1
20260510021511 44 257 3.0 8.0 0.00 0.00 0.00 88 1023.2
20260510021017 44 220 3.0 7.0 0.00 0.00 0.00 87 1023.1
20260510020510 44 229 2.0 7.0 0.00 0.00 0.00 87 1023.1
20260510020018 44 243 1.0 6.0 0.00 0.00 0.00 87 1023.0
20260510015511 44 210 1.0 5.0 0.00 0.00 0.00 87 1023.0
20260510014017 44 229 1.0 3.0 0.00 0.00 0.00 87 1023.0
20260510013521 44 216 1.0 3.0 0.00 0.00 0.00 87 1023.0
20260510013017 44 204 1.0 5.0 0.00 0.00 0.00 86 1022.8
20260510012510 44 231 1.0 5.0 0.00 0.00 0.00 86 1022.8
20260510012030 44 226 1.0 5.0 0.00 0.00 0.00 86 1023.0
20260510011510 44 245 2.0 5.0 0.00 0.00 0.00 85 1023.0
20260510005518 44 217 1.0 5.0 0.00 0.00 0.00 84 1023.0
20260510005010 44 141 2.0 5.0 0.00 0.00 0.00 83 1023.0
20260510004517 44 239 1.0 5.0 0.00 0.00 0.00 83 1023.0
20260510004010 44 153 2.0 5.0 0.00 0.00 0.00 83 1023.0
20260510002010 44 229 0.0 4.0 0.00 0.00 0.00 81 1022.7
20260510001529 44 282 2.0 6.0 0.00 0.00 0.00 81 1022.6
20260510001010 44 227 1.0 6.0 0.00 0.00 0.00 81 1022.6
20260509235510 44 283 0.0 4.0 0.00 0.00 0.00 79 1022.4
20260509235017 44 237 1.0 4.0 0.00 0.00 0.00 79 1022.4
20260509234510 45 258 1.0 6.0 0.00 0.00 0.00 79 1022.3
20260509234017 45 242 3.0 6.0 0.00 0.00 0.00 78 1022.3
20260509233510 45 264 1.0 5.0 0.00 0.00 0.00 78 1022.1
20260509233018 45 236 1.0 5.0 0.00 0.00 0.00 77 1022.1
20260509232510 45 217 1.0 5.0 0.00 0.00 0.00 77 1022.1
20260509232018 45 230 1.0 6.0 0.00 0.00 0.00 76 1022.0
20260509231511 45 248 1.0 6.0 0.00 0.00 0.00 76 1022.0
20260509231017 45 266 1.0 5.0 0.00 0.00 0.00 76 1021.9
20260509230511 45 243 1.0 8.0 0.00 0.00 0.00 75 1021.8
20260509230018 45 253 1.0 8.0 0.00 0.00 0.00 75 1021.8
20260509225510 46 276 1.0 5.0 0.00 0.00 0.00 74 1021.7
20260509225018 46 248 1.0 9.0 0.00 0.00 0.00 74 1021.6
20260509224510 46 271 2.0 9.0 0.00 0.00 0.00 73 1021.6
20260509224018 47 264 1.0 9.0 0.00 0.00 0.00 72 1021.5
20260509223510 47 349 1.0 7.0 0.00 0.00 0.00 72 1021.3
20260509223017 48 195 2.0 9.0 0.00 0.00 0.00 70 1021.2
20260509222515 48 233 2.0 9.0 0.00 0.00 0.00 70 1021.1
20260509222017 48 245 3.0 10.0 0.00 0.00 0.00 69 1020.9
20260509221511 48 151 3.0 10.0 0.00 0.00 0.00 69 1020.8
20260509221018 49 345 4.0 10.0 0.00 0.00 0.00 68 1020.7
20260509220533 49 221 3.0 8.0 0.00 0.00 0.00 70 1020.8
20260509220017 48 238 2.0 9.0 0.00 0.00 0.00 70 1020.7
20260509215510 48 122 2.0 9.0 0.00 0.00 0.00 70 1020.7
20260509215019 49 221 2.0 8.0 0.00 0.00 0.00 70 1020.7
20260509214510 49 261 2.0 7.0 0.00 0.00 0.00 68 1020.5
20260509214017 49 238 2.0 9.0 0.00 0.00 0.00 68 1020.5
20260509213510 49 196 3.0 9.0 0.00 0.00 0.00 69 1020.3
20260509213034 48 249 3.0 8.0 0.00 0.00 0.00 70 1020.3
20260509212510 48 281 3.0 10.0 0.00 0.00 0.00 71 1020.3
20260509212018 48 279 4.0 10.0 0.00 0.00 0.00 70 1020.3
20260509211521 49 198 3.0 12.0 0.00 0.00 0.00 70 1020.2
20260509211018 49 255 3.0 12.0 0.00 0.00 0.00 71 1020.3
20260509210510 48 262 3.0 10.0 0.00 0.00 0.00 71 1020.1
20260509210029 48 306 4.0 10.0 0.00 0.00 0.00 71 1020.1
20260509205522 48 243 3.0 10.0 0.00 0.00 0.00 72 1020.1
20260509205017 48 226 4.0 10.0 0.00 0.00 0.00 71 1020.1
20260509204511 48 274 4.0 10.0 0.00 0.00 0.00 71 1020.1
20260509204018 48 269 3.0 10.0 0.00 0.00 0.00 72 1020.1
20260509203512 48 219 2.0 10.0 0.00 0.00 0.00 73 1020.1
20260509203018 48 243 3.0 11.0 0.00 0.00 0.00 72 1020.0
20260509202510 48 225 4.0 11.0 0.00 0.00 0.00 72 1019.9
20260509202018 48 197 4.0 11.0 0.00 0.00 0.00 72 1019.9
20260509201522 48 240 4.0 12.0 0.00 0.00 0.00 72 1019.9
20260509201018 48 228 3.0 11.0 0.00 0.00 0.00 72 1019.7
20260509200510 49 117 5.0 11.0 0.00 0.00 0.00 72 1019.7
20260509200018 49 245 6.0 11.0 0.00 0.00 0.00 71 1019.4
20260509195510 50 227 4.0 11.0 0.00 0.00 0.00 71 1019.4
20260509195018 50 147 4.0 10.0 0.00 0.00 0.00 71 1019.4
20260509194521 51 248 3.0 9.0 0.00 0.00 0.00 69 1019.2
20260509194018 51 113 2.0 12.0 0.00 0.00 0.00 70 1019.2
20260509193522 51 210 5.0 12.0 0.00 0.00 0.00 68 1019.4
20260509193018 52 247 1.0 10.0 0.00 0.00 0.00 69 1019.4
20260509192510 51 282 3.0 12.0 0.00 0.00 0.00 70 1019.4
20260509192021 51 269 2.0 12.0 0.00 0.00 0.00 70 1019.2
20260509191519 52 277 3.0 9.0 0.00 0.00 0.00 70 1019.2
20260509191011 51 145 1.0 11.0 0.00 0.00 0.00 70 1019.1
20260509190519 51 193 3.0 13.0 0.00 0.00 0.00 71 1019.2
20260509190021 50 62 3.0 13.0 0.00 0.00 0.00 71 1019.2
20260509185511 50 266 5.0 12.0 0.00 0.00 0.00 72 1019.2
20260509185020 50 165 4.0 12.0 0.00 0.00 0.00 72 1019.1
20260509184519 50 237 5.0 12.0 0.00 0.00 0.00 71 1019.0
20260509184015 51 217 5.0 12.0 0.00 0.00 0.00 70 1019.1
20260509183520 51 250 5.0 13.0 0.00 0.00 0.00 71 1019.0
20260509183025 52 240 6.0 13.0 0.00 0.00 0.00 70 1018.9
20260509182524 52 235 7.0 13.0 0.00 0.00 0.00 69 1018.8
20260509182020 52 250 5.0 13.0 0.00 0.00 0.00 68 1018.8
20260509181511 52 260 6.0 11.0 0.00 0.00 0.00 67 1018.8
20260509181018 54 236 4.0 10.0 0.00 0.00 0.00 66 1018.8
20260509180512 54 224 4.0 10.0 0.00 0.00 0.00 66 1018.7
20260509180020 54 197 4.0 10.0 0.00 0.00 0.00 65 1018.6
20260509175519 54 226 4.0 10.0 0.00 0.00 0.00 66 1018.6
20260509175012 54 150 4.0 13.0 0.00 0.00 0.00 65 1018.6
20260509174531 54 226 4.0 13.0 0.00 0.00 0.00 64 1018.6
20260509174018 54 245 4.0 12.0 0.00 0.00 0.00 63 1018.6
20260509173512 54 307 7.0 12.0 0.00 0.00 0.00 60 1018.6
20260509173020 55 255 4.0 13.0 0.00 0.00 0.00 61 1018.4